Location: Home
(42.5358°N, 72.7383°W)
Time: 23:53:39
(UTC-04:00)

DELTA 1 DEB - Pass Details

Date: 27 June 2022
Orbit: 600 x 774 km, 98.5° (Epoch: 16 August)

Event Time Altitude Azimuth Distance (km) Brightness Sun altitude
Exits shadow 22:37:18 29° 155° (SSE) 1,389 ? -17.0°
Maximum altitude 22:39:58 77° 75° (ENE) 791 ? -17.3°
Drops below altitude 10° 22:45:01 10° 350° (N) 2,282 ? -17.8°
Sets 22:47:18 0° 349° (NNW) 3,191 ? -18.0°
